This is the latest recevied weather packets stored in our database for station/object OE3APM-13. If no packets are shown the sender has not sent any weather packets the latest 1 day(s).
| Time | Temp. | Humidity | Pressure | Rain* | Wind** | Luminosity | Snow |
|---|---|---|---|---|---|---|---|
| 1777976184 | 25° C | 37% | 1007.5 hPa | 0 mm | 1.79 m/s, 75° | 830 W/m² | - |
| 1777975885 | 24.44° C | 40% | 1007.5 hPa | 0 mm | 1.79 m/s, 120° | 826 W/m² | - |
| 1777975580 | 25° C | 38% | 1007.5 hPa | 0 mm | 1.34 m/s, 5° | 826 W/m² | - |
| 1777975275 | 24.44° C | 38% | 1007.6 hPa | 0 mm | 0.89 m/s, 13° | 823 W/m² | - |
| 1777974964 | 24.44° C | 38% | 1007.7 hPa | 0 mm | 1.79 m/s, 125° | 821 W/m² | - |
| 1777974660 | 24.44° C | 40% | 1007.7 hPa | 0 mm | 1.79 m/s, 119° | 817 W/m² | - |
| 1777974353 | 23.89° C | 41% | 1007.8 hPa | 0 mm | 1.34 m/s, 163° | 816 W/m² | - |
| 1777974052 | 23.89° C | 41% | 1007.8 hPa | 0 mm | 1.34 m/s, 159° | 809 W/m² | - |
| 1777973751 | 23.89° C | 38% | 1007.9 hPa | 0 mm | 1.79 m/s, 161° | 807 W/m² | - |
| 1777973452 | 23.89° C | 41% | 1007.9 hPa | 0 mm | 1.79 m/s, 165° | 805 W/m² | - |
| 1777973152 | 23.89° C | 42% | 1007.9 hPa | 0 mm | 1.79 m/s, 115° | 795 W/m² | - |
| 1777972847 | 23.33° C | 40% | 1007.9 hPa | 0 mm | 1.79 m/s, 143° | 789 W/m² | - |
| 1777972547 | 23.33° C | 44% | 1007.9 hPa | 0 mm | 1.79 m/s, 144° | 788 W/m² | - |
| 1777972247 | 23.33° C | 42% | 1008 hPa | 0 mm | 1.79 m/s, 140° | 775 W/m² | - |
| 1777971948 | 22.78° C | 44% | 1008 hPa | 0 mm | 1.79 m/s, 171° | 768 W/m² | - |
| 1777971655 | 22.78° C | 42% | 1008 hPa | 0 mm | 1.34 m/s, 157° | 759 W/m² | - |
| 1777971345 | 22.78° C | 44% | 1008.1 hPa | 0 mm | 1.34 m/s, 148° | 754 W/m² | - |
| 1777971045 | 22.22° C | 44% | 1008.1 hPa | 0 mm | 1.34 m/s, 144° | 747 W/m² | - |
| 1777970751 | 22.22° C | 42% | 1008.1 hPa | 0 mm | 1.34 m/s, 151° | 737 W/m² | - |
| 1777970445 | 22.22° C | 44% | 1008.2 hPa | 0 mm | 1.34 m/s, 144° | 729 W/m² | - |
| 1777970144 | 22.22° C | 45% | 1008.2 hPa | 0 mm | 1.34 m/s, 132° | 721 W/m² | - |
| 1777969843 | 21.67° C | 45% | 1008.2 hPa | 0 mm | 1.34 m/s, 127° | 710 W/m² | - |
| 1777969546 | 21.67° C | 45% | 1008.3 hPa | 0 mm | 1.79 m/s, 183° | 705 W/m² | - |
| 1777969244 | 21.11° C | 46% | 1008.3 hPa | 0 mm | 1.34 m/s, 147° | 694 W/m² | - |
| 1777968941 | 21.11° C | 47% | 1008.3 hPa | 0 mm | 1.34 m/s, 127° | 687 W/m² | - |
* Rain latest hour (hover to see other rain measurements)
** Current wind speed in m/s (hover to see current wind gust speed)